Location: Quedlinburg
(51.7921°N, 11.1414°E)
Time: 13:58:46
(UTC+02:00)

RS-15 - Pass Details

Date: 20 March 2026
Orbit: 1893 x 2152 km, 64.8° (Epoch: 22 April)

Event Time Altitude Azimuth Distance (km) Brightness Sun altitude
Rises 00:56:15 0° 295° (WNW) 5,324 10.5 -38.0°
Reaches altitude 10° 00:59:46 10° 302° (WNW) 4,350 10.0 -37.9°
Maximum altitude 01:10:27 46° 14° (NNE) 2,535 8.8 -37.5°
Drops below altitude 10° 01:21:36 10° 86° (E) 4,541 10.1 -37.0°
Sets 01:25:21 0° 93° (E) 5,574 10.6 -36.8°
